Location: Limerick
(52.6800°N, 8.6400°W)
Time: 12:21:06
(UTC+01:00)

Amateur Radio Satellites - All Passes

Search period start: 20 October 2014 11:51
Search period end: 21 October 2014 11:51
Location: Limerick, 52.6800°N, 8.6400°W

Satellite Date Start Highest point End Downlink Frequencies (MHz)
Time Altitude Azimuth
PCSat 20 Oct 11:53:13 11:57:24 22° 19° (NNE) 12:01:34 145.825 MHz
Oscar 19 20 Oct 11:57:26 11:59:25 12° 47° (NE) 12:01:23 437.125 CW, 437.150 USB
Oscar 11 20 Oct 12:00:14 12:04:31 60° 289° (WNW) 12:08:45 145.825 FM, Beacon 2401.500 USB
HO-68 20 Oct 12:10:28 12:17:16 47° 301° (WNW) 12:24:02 435.675 MHz FM
JAS-1B 20 Oct 12:24:33 12:28:24 19° 49° (NE) 12:32:12 435.800 - 435.900 CW/SSB
ZACube-1 20 Oct 12:34:32 12:38:52 60° 289° (WNW) 12:43:04 437.345 MHz
Oscar 16 20 Oct 12:39:38 12:43:40 24° 56° (ENE) 12:47:42 437.025 USB, Beacon 2401.1428
UKube-1 20 Oct 12:50:27 12:53:56 24° 301° (WNW) 12:57:24 145.840 MHz, 145.915 MHz
Uribyol 2 20 Oct 12:50:56 12:54:03 16° 50° (NE) 12:57:09 436.500 FM
ITAMSAT 1 20 Oct 12:55:31 12:58:41 17° 50° (NE) 13:01:52 435.822 SSB
KITSAT 1 20 Oct 12:59:38 13:05:25 22° 104° (ESE) 13:11:13 435.175 FM
Saudisat 1A 20 Oct 13:03:22 13:06:49 22° 342° (NNW) 13:10:17 436.775 MHz
AO-7 20 Oct 13:11:55 13:16:09 15° 23° (NNE) 13:20:23 29.400 - 29.500 MHz
Sapphire 20 Oct 13:13:30 13:18:37 39° 37° (NE) 13:23:42 437.095 MHz 1200 baud AX-25 AFSK
AO-Echo 20 Oct 13:16:43 13:20:37 24° 57° (ENE) 13:24:37 ?
FUNcube-1 20 Oct 13:21:07 13:24:43 25° 299° (WNW) 13:28:13 145.950 - 145.970 MHz USB
Oscar 19 20 Oct 13:32:42 13:37:43 53° 67° (ENE) 13:42:43 437.125 CW, 437.150 USB
PCSat 20 Oct 13:36:41 13:42:01 53° 43° (NE) 13:47:19 145.825 MHz
AO-27 20 Oct 13:37:54 13:42:26 31° 60° (ENE) 13:47:00 436.795 MHz FM
Oscar 11 20 Oct 13:38:47 13:39:51 11° 309° (NW) 13:40:54 145.825 FM, Beacon 2401.500 USB
HO-68 20 Oct 13:59:25 14:03:21 16° 324° (NW) 14:07:17 435.675 MHz FM
JAS-1B 20 Oct 14:12:23 14:18:23 84° 72° (ENE) 14:24:05 435.800 - 435.900 CW/SSB
ZACube-1 20 Oct 14:13:15 14:14:23 11° 310° (NW) 14:15:30 437.345 MHz
SO-50 20 Oct 14:14:09 14:16:15 13° 110° (ESE) 14:18:23 436.795 FM
Oscar 16 20 Oct 14:17:25 14:22:35 71° 256° (WSW) 14:27:46 437.025 USB, Beacon 2401.1428
Gurwin Techsat 1B 20 Oct 14:22:05 14:26:56 38° 63° (ENE) 14:31:49 435.225 FM
Uribyol 2 20 Oct 14:27:30 14:32:42 72° 70° (ENE) 14:37:56 436.500 FM
ITAMSAT 1 20 Oct 14:32:11 14:37:22 74° 71° (ENE) 14:42:37 435.822 SSB
TMSAT-1 20 Oct 14:36:44 14:41:34 38° 63° (ENE) 14:46:27 436.925 FM
Saudisat 1A 20 Oct 14:44:44 14:47:50 18° 7° (N) 14:50:57 436.775 MHz
KITSAT 1 20 Oct 14:51:34 14:59:37 77° 126° (SE) 15:07:43 435.175 FM
AO-Echo 20 Oct 14:54:09 14:58:59 65° 258° (WSW) 15:04:01 ?
Sapphire 20 Oct 14:56:58 15:02:18 57° 239° (WSW) 15:07:36 437.095 MHz 1200 baud AX-25 AFSK
Uosat F 20 Oct 14:58:53 15:01:23 14° 48° (NE) 15:03:54 435.120 FM
AO-7 20 Oct 14:59:23 15:06:39 36° 49° (NE) 15:13:57 29.400 - 29.500 MHz
Oscar 19 20 Oct 15:12:56 15:17:21 28° 267° (W) 15:21:46 437.125 CW, 437.150 USB
ISS 20 Oct 15:16:06 15:17:02 11° 138° (SE) 15:17:57 145.800 FM
AO-27 20 Oct 15:16:41 15:21:46 52° 260° (W) 15:26:54 436.795 MHz FM
PCSat 20 Oct 15:20:21 15:25:20 38° 244° (WSW) 15:30:17 145.825 MHz
SO-50 20 Oct 15:51:27 15:55:58 72° 130° (SE) 16:00:39 436.795 FM
Oscar 16 20 Oct 16:00:48 16:02:54 12° 276° (W) 16:05:00 437.025 USB, Beacon 2401.1428
Gurwin Techsat 1B 20 Oct 16:01:51 16:06:53 42° 263° (W) 16:11:57 435.225 FM
UOSAT-12 20 Oct 16:04:55 16:07:42 16° 112° (ESE) 16:10:30 437.025 FM, 437.400 FM
JAS-1B 20 Oct 16:06:01 16:09:55 18° 272° (W) 16:13:43 435.800 - 435.900 CW/SSB
Uribyol 2 20 Oct 16:08:48 16:12:43 21° 270° (W) 16:16:40 436.500 FM
JAS-2 20 Oct 16:13:17 16:17:42 21° 47° (NE) 16:22:30 435.800 - 435.900 CW/SSB, 435.910 FM
ITAMSAT 1 20 Oct 16:13:36 16:17:27 21° 271° (W) 16:21:19 435.822 SSB
TMSAT-1 20 Oct 16:16:28 16:21:29 42° 263° (W) 16:26:32 436.925 FM
Saudisat 1A 20 Oct 16:24:33 16:28:37 34° 30° (NNE) 16:32:39 436.775 MHz
Uosat F 20 Oct 16:34:19 16:39:16 63° 69° (ENE) 16:44:17 435.120 FM
AO-Echo 20 Oct 16:37:54 16:38:51 11° 279° (W) 16:39:48 ?
Sapphire 20 Oct 16:43:13 16:44:36 11° 259° (W) 16:45:59 437.095 MHz 1200 baud AX-25 AFSK
KITSAT 1 20 Oct 16:48:00 16:55:42 45° 331° (NNW) 17:03:25 435.175 FM
ISS 20 Oct 16:49:54 16:53:02 38° 157° (SSE) 16:56:11 145.800 FM
AO-7 20 Oct 16:50:36 16:58:53 77° 251° (WSW) 17:07:14 29.400 - 29.500 MHz
SO-50 20 Oct 17:32:47 17:36:57 32° 332° (NNW) 17:41:13 436.795 FM
UOSAT-12 20 Oct 17:42:28 17:47:09 81° 132° (SE) 17:51:55 437.025 FM, 437.400 FM
Hamsat 20 Oct 17:51:40 17:55:42 45° 69° (ENE) 17:59:43 145.90 MHz
OPAL 20 Oct 17:52:57 17:56:30 19° 92° (E) 18:00:02 ?
JAS-2 20 Oct 17:55:47 18:01:41 77° 71° (ENE) 18:08:27 435.800 - 435.900 CW/SSB, 435.910 FM
Saudisat 1A 20 Oct 18:04:05 18:08:28 61° 232° (SW) 18:12:50 436.775 MHz
Uosat F 20 Oct 18:14:33 18:18:30 23° 269° (W) 18:22:29 435.120 FM
ISS 20 Oct 18:26:13 18:29:33 75° 176° (S) 18:32:54 145.800 FM
KITSAT 1 20 Oct 18:46:07 18:53:12 32° 359° (N) 19:00:16 435.175 FM
AO-7 20 Oct 18:47:14 18:53:06 21° 274° (W) 18:59:00 29.400 - 29.500 MHz
HO-68 20 Oct 19:12:28 19:17:31 21° 43° (NE) 19:22:35 435.675 MHz FM
SO-50 20 Oct 19:15:23 19:18:50 20° 356° (N) 19:22:20 436.795 FM
UOSAT-12 20 Oct 19:23:36 19:27:48 31° 334° (NNW) 19:32:02 437.025 FM, 437.400 FM
SO-67 20 Oct 19:23:54 19:27:16 56° 72° (ENE) 19:30:41 435.3500 MHz FM
Hamsat 20 Oct 19:28:27 19:31:52 24° 268° (W) 19:35:18 145.90 MHz
STRAND 1 20 Oct 19:28:54 19:32:49 21° 90° (E) 19:36:43 ?
OPAL 20 Oct 19:30:57 19:35:58 75° 292° (WNW) 19:40:55 ?
JAS-2 20 Oct 19:42:56 19:47:39 24° 275° (W) 19:52:50 435.800 - 435.900 CW/SSB, 435.910 FM
Saudisat 1A 20 Oct 19:46:22 19:47:10 10° 251° (WSW) 19:47:58 436.775 MHz
ISS 20 Oct 20:02:52 20:06:10 54° 196° (SSW) 20:09:26 145.800 FM
UKube-1 20 Oct 20:40:39 20:43:26 17° 55° (NE) 20:46:13 145.840 MHz, 145.915 MHz
KITSAT 1 20 Oct 20:43:02 20:50:44 44° 28° (NNE) 20:58:23 435.175 FM
SO-50 20 Oct 20:56:51 21:00:51 26° 21° (NNE) 21:04:55 436.795 FM
HO-68 20 Oct 20:57:00 21:04:05 67° 65° (ENE) 21:11:13 435.675 MHz FM
SO-67 20 Oct 20:58:47 21:00:37 14° 271° (W) 21:02:28 435.3500 MHz FM
UOSAT-12 20 Oct 21:05:50 21:09:18 20° 358° (N) 21:12:46 437.025 FM, 437.400 FM
STRAND 1 20 Oct 21:07:22 21:12:32 70° 290° (WNW) 21:17:39 ?
OPAL 20 Oct 21:11:02 21:14:06 17° 312° (NW) 21:17:08 ?
FUNcube-1 20 Oct 21:12:17 21:14:47 15° 54° (NE) 21:17:16 145.950 - 145.970 MHz USB
Oscar 11 20 Oct 21:25:18 21:29:08 31° 64° (ENE) 21:32:58 145.825 FM, Beacon 2401.500 USB
AO-40 20 Oct 21:30:12 23:45:00 18° 126° (SE) 00:55:35 Beacon 2401.320
ISS 20 Oct 21:40:01 21:42:24 18° 215° (SW) 21:44:46 145.800 FM
Oscar 10/S400 20 Oct 21:48:25 22:22:37 38° 197° (SSW) 03:55:28 145.825 - 145.975 CW/USB, Beacon 145.810 USB
ZACube-1 20 Oct 22:00:32 22:04:39 33° 65° (ENE) 22:08:44 437.345 MHz
UKube-1 20 Oct 22:14:43 22:19:05 83° 255° (WSW) 22:23:29 145.840 MHz, 145.915 MHz
SO-50 20 Oct 22:37:22 22:42:10 71° 43° (NE) 22:47:03 436.795 FM
KITSAT 1 20 Oct 22:38:45 22:46:51 80° 233° (SW) 22:54:55 435.175 FM
RS-15 20 Oct 22:41:57 22:50:20 27° 103° (ESE) 22:58:41 29.354 - 29.394 USB, Beacon 29.352 USB
FUNcube-1 20 Oct 22:45:53 22:50:29 79° 74° (ENE) 22:55:03 145.950 - 145.970 MHz USB
HO-68 20 Oct 22:46:01 22:52:19 33° 267° (W) 22:58:41 435.675 MHz FM
UOSAT-12 20 Oct 22:46:50 22:50:53 27° 22° (NNE) 22:54:54 437.025 FM, 437.400 FM
STRAND 1 20 Oct 22:47:56 22:50:53 16° 310° (NW) 22:53:50 ?
Oscar 11 20 Oct 23:01:15 23:05:16 36° 263° (W) 23:09:18 145.825 FM, Beacon 2401.500 USB
ZACube-1 20 Oct 23:36:43 23:41:01 38° 263° (W) 23:45:17 437.345 MHz
UKube-1 20 Oct 23:54:24 23:56:01 12° 274° (W) 23:57:37 145.840 MHz, 145.915 MHz
SO-50 21 Oct 00:18:27 00:22:23 25° 243° (WSW) 00:26:20 436.795 FM
FUNcube-1 21 Oct 00:24:35 00:27:25 16° 272° (W) 00:30:15 145.950 - 145.970 MHz USB
UOSAT-12 21 Oct 00:26:58 00:31:44 77° 44° (NE) 00:36:26 437.025 FM, 437.400 FM
KITSAT 1 21 Oct 00:35:10 00:41:07 23° 256° (WSW) 00:47:04 435.175 FM
RS-15 21 Oct 00:50:03 01:00:59 80° 128° (SE) 01:11:58 29.354 - 29.394 USB, Beacon 29.352 USB
Oscar 19 21 Oct 01:40:21 01:42:05 12° 83° (E) 01:43:48 437.125 CW, 437.150 USB
JAS-1B 21 Oct 01:49:33 01:53:21 16° 86° (E) 01:57:25 435.800 - 435.900 CW/SSB
MaSat-1 21 Oct 02:06:02 02:10:08 62° 120° (ESE) 02:13:50 437.345 MHz
UOSAT-12 21 Oct 02:07:48 02:11:26 22° 245° (WSW) 02:15:00 437.025 FM, 437.400 FM
Oscar 16 21 Oct 02:23:26 02:27:45 27° 92° (E) 02:32:03 437.025 USB, Beacon 2401.1428
Uribyol 2 21 Oct 02:35:20 02:38:36 17° 87° (E) 02:41:51 436.500 FM
ITAMSAT 1 21 Oct 02:40:04 02:43:28 17° 87° (E) 02:46:49 435.822 SSB
AO-Echo 21 Oct 02:55:16 02:59:50 29° 93° (E) 03:04:24 ?
RS-15 21 Oct 03:03:38 03:14:15 53° 337° (NNW) 03:25:04 29.354 - 29.394 USB, Beacon 29.352 USB
Oscar 19 21 Oct 03:17:18 03:22:26 68° 103° (ESE) 03:27:32 437.125 CW, 437.150 USB
AO-27 21 Oct 03:23:34 03:28:26 37° 96° (E) 03:33:15 436.795 MHz FM
OPAL 21 Oct 03:37:05 03:40:02 16° 47° (NE) 03:42:59 ?
JAS-1B 21 Oct 03:38:45 03:44:55 76° 105° (ESE) 03:52:10 435.800 - 435.900 CW/SSB
MaSat-1 21 Oct 03:43:01 03:46:11 22° 318° (NW) 03:49:05 437.345 MHz
Oscar 16 21 Oct 04:02:25 04:07:27 55° 292° (WNW) 04:12:26 437.025 USB, Beacon 2401.1428
Gurwin Techsat 1B 21 Oct 04:11:31 04:16:43 51° 100° (E) 04:21:53 435.225 FM
Uribyol 2 21 Oct 04:13:34 04:18:50 90° 274° (W) 04:24:03 436.500 FM
ITAMSAT 1 21 Oct 04:18:24 04:23:41 87° 287° (WNW) 04:28:55 435.822 SSB
TMSAT-1 21 Oct 04:25:45 04:30:56 51° 100° (E) 04:36:06 436.925 FM
PCSat 21 Oct 04:28:38 04:30:11 11° 101° (ESE) 04:31:45 145.825 MHz
AO-Echo 21 Oct 04:33:45 04:38:52 54° 292° (WNW) 04:44:02 ?
Uosat F 21 Oct 04:37:53 04:39:57 12° 84° (E) 04:42:00 435.120 FM
AO-7 21 Oct 04:45:51 04:52:33 26° 90° (E) 04:59:13 29.400 - 29.500 MHz
Oscar 19 21 Oct 04:57:20 05:01:23 24° 303° (WNW) 05:05:24 437.125 CW, 437.150 USB
JAS-2 21 Oct 05:00:41 05:02:55 11° 75° (ENE) 05:05:11 435.800 - 435.900 CW/SSB, 435.910 FM
AO-27 21 Oct 05:03:06 05:08:01 42° 296° (WNW) 05:12:55 436.795 MHz FM
OPAL 21 Oct 05:12:59 05:18:06 68° 67° (ENE) 05:23:11 ?
STRAND 1 21 Oct 05:15:05 05:17:11 13° 47° (NE) 05:19:18 ?
RS-15 21 Oct 05:18:47 05:29:15 46° 10° (N) 05:39:59 29.354 - 29.394 USB, Beacon 29.352 USB
JAS-1B 21 Oct 05:30:15 05:35:14 27° 304° (NW) 05:40:47 435.800 - 435.900 CW/SSB
Oscar 16 21 Oct 05:43:40 05:45:47 13° 313° (NW) 05:47:54 437.025 USB, Beacon 2401.1428
Sapphire 21 Oct 05:44:34 05:49:32 39° 116° (ESE) 05:54:33 437.095 MHz 1200 baud AX-25 AFSK
Gurwin Techsat 1B 21 Oct 05:51:50 05:56:31 32° 300° (WNW) 06:01:11 435.225 FM
Uribyol 2 21 Oct 05:54:01 05:57:40 20° 307° (NW) 06:01:19 436.500 FM
ITAMSAT 1 21 Oct 05:58:55 06:02:31 19° 307° (NW) 06:06:07 435.822 SSB
TMSAT-1 21 Oct 06:06:01 06:10:42 32° 300° (WNW) 06:15:21 436.925 FM
PCSat 21 Oct 06:07:11 06:12:30 58° 122° (ESE) 06:17:50 145.825 MHz
AO-Echo 21 Oct 06:14:22 06:16:36 13° 312° (NW) 06:18:51 ?
Uosat F 21 Oct 06:14:35 06:19:40 72° 104° (ESE) 06:24:42 435.120 FM
AO-7 21 Oct 06:38:03 06:46:25 89° 292° (WNW) 06:54:47 29.400 - 29.500 MHz
JAS-2 21 Oct 06:42:27 06:49:44 48° 97° (E) 06:57:17 435.800 - 435.900 CW/SSB, 435.910 FM
AO-27 21 Oct 06:45:52 06:46:17 10° 317° (NW) 06:46:41 436.795 MHz FM
STRAND 1 21 Oct 06:50:21 06:55:21 54° 67° (ENE) 07:00:23 ?
OPAL 21 Oct 06:53:27 06:57:27 22° 266° (W) 07:01:26 ?
Hamsat 21 Oct 07:07:03 07:11:01 40° 97° (E) 07:14:59 145.90 MHz
Sapphire 21 Oct 07:27:36 07:32:53 52° 317° (NW) 07:38:13 437.095 MHz 1200 baud AX-25 AFSK
RS-15 21 Oct 07:32:20 07:43:26 76° 41° (NE) 07:54:57 29.354 - 29.394 USB, Beacon 29.352 USB
PCSat 21 Oct 07:51:08 07:56:12 38° 324° (NW) 08:01:17 145.825 MHz
Uosat F 21 Oct 07:54:06 07:58:00 23° 304° (NW) 08:01:53 435.120 FM
SO-67 21 Oct 08:14:26 08:17:30 29° 95° (E) 08:20:33 435.3500 MHz FM
JAS-2 21 Oct 08:27:39 08:34:48 52° 296° (WNW) 08:42:19 435.800 - 435.900 CW/SSB, 435.910 FM
STRAND 1 21 Oct 08:30:30 08:34:51 27° 267° (W) 08:39:14 ?
AO-7 21 Oct 08:31:26 08:38:23 31° 315° (NW) 08:45:21 29.400 - 29.500 MHz
Hamsat 21 Oct 08:43:19 08:46:51 27° 297° (WNW) 08:50:23 145.90 MHz
Sapphire 21 Oct 09:13:23 09:17:32 22° 342° (NNW) 09:21:42 437.095 MHz 1200 baud AX-25 AFSK
PCSat 21 Oct 09:37:15 09:41:07 19° 348° (NNW) 09:44:59 145.825 MHz
RS-15 21 Oct 09:45:03 09:55:15 45° 247° (WSW) 10:05:50 29.354 - 29.394 USB, Beacon 29.352 USB
SO-67 21 Oct 09:47:31 09:50:26 26° 294° (WNW) 09:53:20 435.3500 MHz FM
Saudisat 1A 21 Oct 09:54:49 09:59:01 46° 125° (SE) 10:03:15 436.775 MHz
UKube-1 21 Oct 09:59:01 10:00:31 12° 86° (E) 10:02:01 145.840 MHz, 145.915 MHz
HO-68 21 Oct 10:05:46 10:12:29 40° 96° (E) 10:19:09 435.675 MHz FM
MaSat-1 21 Oct 10:11:58 10:14:54 59° 53° (NE) 10:17:30 437.345 MHz
JAS-2 21 Oct 10:13:57 10:18:23 17° 318° (NW) 10:22:58 435.800 - 435.900 CW/SSB, 435.910 FM
AO-7 21 Oct 10:24:58 10:28:40 14° 341° (NNW) 10:32:22 29.400 - 29.500 MHz
FUNcube-1 21 Oct 10:32:14 10:32:40 10° 83° (E) 10:33:07 145.950 - 145.970 MHz USB
Oscar 11 21 Oct 10:42:46 10:46:28 27° 94° (E) 10:50:08 145.825 FM, Beacon 2401.500 USB
Sapphire 21 Oct 10:59:10 11:02:55 18° 8° (N) 11:06:41 437.095 MHz 1200 baud AX-25 AFSK
ZACube-1 21 Oct 11:20:02 11:23:50 29° 94° (E) 11:27:32 437.345 MHz
PCSat 21 Oct 11:22:31 11:26:31 20° 15° (NNE) 11:30:30 145.825 MHz
UKube-1 21 Oct 11:33:03 11:37:28 81° 105° (ESE) 11:41:50 145.840 MHz, 145.915 MHz
Saudisat 1A 21 Oct 11:34:32 11:38:41 40° 326° (NW) 11:42:53 436.775 MHz
